EW1967 Weather Reports


time (UTC)temp
C
wind
direction
speed
KPH
gust
KPH
rain 1hr
cm
rain 24hr
cm
rain mn
cm
humidity
%
barometer
mb
20260504001535 9 326 0.0 0.0 0.00 0.00 0.00 83 1017.3
20260504000033 10 326 0.0 0.0 0.00 0.00 0.00 83 1017.3
20260503234533 10 327 0.0 0.0 0.00 0.00 0.00 82 1017.4
20260503233027 10 327 0.0 0.0 0.00 0.00 0.00 82 1017.5
20260503231536 10 327 0.0 0.0 0.00 0.00 0.00 80 1017.5
20260503230025 10 328 0.0 0.0 0.00 0.00 0.00 79 1017.4
20260503224523 11 328 0.0 0.0 0.00 0.00 0.00 78 1017.5
20260503223024 11 47 0.0 4.8 0.00 0.00 0.00 78 1017.5
20260503221519 11 220 0.0 0.0 0.00 0.00 0.00 77 1017.4
20260503220018 11 221 0.0 0.0 0.00 0.00 0.00 78 1017.4
20260503214516 11 221 0.0 0.0 0.00 0.00 0.00 76 1017.4
20260503213016 12 221 0.0 4.8 0.00 0.00 0.00 75 1017.2
20260503211521 12 335 0.0 0.0 0.00 0.00 0.00 74 1017.1
20260503210018 12 336 0.0 0.0 0.00 0.00 0.00 74 1017.1
20260503204515 12 340 0.0 4.8 0.00 0.00 0.00 73 1017.0
20260503203021 12 46 0.0 6.4 0.00 0.00 0.00 71 1016.8
20260503201512 14 251 0.0 4.8 0.00 0.00 0.00 68 1016.7
20260503200013 14 134 0.0 4.8 0.00 0.00 0.00 69 1016.8
20260503194519 14 171 0.0 0.0 0.00 0.00 0.00 67 1016.6
20260503193012 14 173 0.0 3.2 0.00 0.00 0.00 66 1016.5
20260503191511 16 222 0.0 4.8 0.00 0.00 0.00 63 1016.3
20260503190011 16 232 6.4 12.9 0.00 0.00 0.00 63 1016.3
20260503184510 16 229 4.8 12.9 0.00 0.00 0.00 62 1016.1
20260503183010 16 271 8.0 16.1 0.00 0.00 0.00 61 1015.9
20260503181508 17 226 6.4 17.7 0.00 0.00 0.00 61 1015.8
20260503180021 17 220 6.4 19.3 0.00 0.00 0.00 60 1015.8
20260503174518 17 236 4.8 11.3 0.00 0.00 0.00 59 1015.6
20260503173010 17 258 8.0 19.3 0.00 0.00 0.00 58 1015.5
20260503171515 18 282 1.6 14.5 0.00 0.00 0.00 58 1015.5
20260503150107 20 239 11.3 27.4 0.00 0.00 0.00 49 1015.7
20260503081557 14 46 0.0 0.0 0.00 0.00 0.00 59 1019.4
20260503071556 12 54 0.0 0.0 0.00 0.00 0.00 65 1019.9
20260503054520 5 177 0.0 0.0 0.00 0.00 0.00 87 1020.4
20260503053007 5 178 0.0 0.0 0.00 0.00 0.00 89 1020.4
20260503051501 3 178 0.0 0.0 0.00 0.00 0.00 89 1020.3
20260503044557 2 190 0.0 0.0 0.00 0.00 0.00 89 1020.1
20260503043057 1 190 0.0 0.0 0.00 0.00 0.00 89 1020.0
20260503041554 1 190 0.0 0.0 0.00 0.00 0.00 89 1020.1
20260503040055 1 190 0.0 0.0 0.00 0.00 0.00 88 1020.1
20260503034553 2 190 0.0 0.0 0.00 0.00 0.00 88 1020.1
20260503033057 2 190 0.0 0.0 0.00 0.00 0.00 88 1020.0
20260503031548 2 190 0.0 0.0 0.00 0.00 0.00 88 1020.1
20260503030048 2 190 0.0 0.0 0.00 0.00 0.00 88 1020.1
20260503024550 2 190 0.0 0.0 0.00 0.00 0.00 88 1020.2
20260503023048 2 190 0.0 0.0 0.00 0.00 0.00 87 1020.1
20260503021542 2 190 0.0 0.0 0.00 0.00 0.00 87 1020.1
20260503020046 2 190 0.0 0.0 0.00 0.00 0.00 87 1020.1
20260503014544 3 190 0.0 0.0 0.00 0.00 0.00 87 1020.2
20260503013039 2 190 0.0 0.0 0.00 0.00 0.00 86 1020.3
20260503011543 2 190 0.0 0.0 0.00 0.00 0.00 85 1020.5
20260503010035 3 190 0.0 0.0 0.00 0.00 0.00 84 1020.5
20260503004537 3 190 0.0 0.0 0.00 0.00 0.00 84 1020.6
20260503003037 3 190 0.0 0.0 0.00 0.00 0.00 84 1020.7